ZHONGXING-2A

Last updated on Sat Aug 15 2026 00:02:58 GMT+0000 (Coordinated Universal Time)

1 38352U 12028A 26226.67579542 -.00000308 00000+0 00000+0 0 9997 2 38352 1.6011 83.0893 0000977 73.0066 148.5299 1.00273140 51886
UTC large
Height (km)
Speed (km/s)
/
Latitude / Longitude
Inclination (degrees)
Orbital Period (minutes)
Azimuth
Elevation
Range (km)
Doppler Factor

Next 0 passes for location: London (51.5072 / 0.1276)

No passes found over London.
ZHONGXING-2A